TimeCST,TemperatureF,Dew PointF,Humidity,Sea Level PressureIn,VisibilityMPH,Wind Direction,Wind SpeedMPH,Gust SpeedMPH,PrecipitationIn,Events,Conditions,WindDirDegrees,DateUTC
12:53 AM,41.0,36.0,82,30.05,10.0,NNW,15.0,-,N/A,,Overcast,330,2013-02-13 06:53:00
1:23 AM,41.0,36.0,82,30.06,10.0,NNW,17.3,-,N/A,,Overcast,330,2013-02-13 07:23:00
1:51 AM,41.0,35.6,81,30.06,10.0,NW,16.1,-,N/A,,Overcast,320,2013-02-13 07:51:00
1:53 AM,41.0,36.0,82,30.06,10.0,NW,16.1,-,N/A,,Overcast,320,2013-02-13 07:53:00
2:53 AM,39.9,35.1,83,30.06,10.0,NNW,16.1,-,N/A,,Overcast,330,2013-02-13 08:53:00
3:53 AM,39.9,35.1,83,30.07,10.0,NW,11.5,-,N/A,,Overcast,310,2013-02-13 09:53:00
4:53 AM,39.0,34.0,82,30.07,10.0,NW,16.1,-,N/A,,Overcast,320,2013-02-13 10:53:00
5:53 AM,39.0,34.0,82,30.09,10.0,NW,13.8,-,N/A,,Overcast,320,2013-02-13 11:53:00
6:53 AM,39.0,34.0,82,30.10,10.0,NNW,12.7,-,N/A,,Overcast,330,2013-02-13 12:53:00
7:53 AM,39.0,33.1,79,30.12,10.0,NW,11.5,-,N/A,,Overcast,310,2013-02-13 13:53:00
8:53 AM,39.9,33.1,77,30.14,10.0,NW,10.4,-,N/A,,Overcast,320,2013-02-13 14:53:00
9:53 AM,41.0,33.1,73,30.15,10.0,NW,5.8,-,N/A,,Mostly Cloudy,310,2013-02-13 15:53:00
10:07 AM,43.0,34.0,71,30.15,10.0,NNW,9.2,-,N/A,,Scattered Clouds,330,2013-02-13 16:07:00
10:53 AM,45.0,34.0,65,30.15,10.0,NNW,3.5,-,N/A,,Partly Cloudy,330,2013-02-13 16:53:00
11:53 AM,48.0,35.1,61,30.13,10.0,NW,4.6,-,N/A,,Partly Cloudy,320,2013-02-13 17:53:00
12:53 PM,51.1,33.1,50,30.11,10.0,Variable,4.6,-,N/A,,Partly Cloudy,0,2013-02-13 18:53:00
1:53 PM,54.0,34.0,47,30.06,10.0,NNW,5.8,-,N/A,,Clear,340,2013-02-13 19:53:00
2:53 PM,55.9,32.0,40,30.04,10.0,Variable,4.6,-,N/A,,Clear,0,2013-02-13 20:53:00
3:53 PM,57.9,28.9,33,30.03,10.0,WSW,5.8,-,N/A,,Clear,240,2013-02-13 21:53:00
4:53 PM,57.9,28.0,32,30.03,10.0,West,3.5,-,N/A,,Clear,270,2013-02-13 22:53:00
5:53 PM,55.0,28.9,37,30.02,10.0,South,5.8,-,N/A,,Clear,170,2013-02-13 23:53:00
6:53 PM,50.0,32.0,50,30.01,10.0,South,8.1,-,N/A,,Clear,170,2013-02-14 00:53:00
7:53 PM,48.9,32.0,52,30.02,10.0,South,8.1,-,N/A,,Clear,180,2013-02-14 01:53:00
8:53 PM,46.9,32.0,56,30.03,10.0,South,6.9,-,N/A,,Clear,180,2013-02-14 02:53:00
9:53 PM,46.0,34.0,63,30.04,10.0,South,8.1,-,N/A,,Clear,180,2013-02-14 03:53:00
10:53 PM,43.0,35.1,74,30.04,10.0,South,8.1,-,N/A,,Clear,180,2013-02-14 04:53:00
11:53 PM,42.1,35.1,76,30.04,10.0,SSW,8.1,-,N/A,,Clear,200,2013-02-14 05:53:00